This is the latest recevied weather packets stored in our database for station/object KC5EZZ-2. If no packets are shown the sender has not sent any weather packets the latest 10 day(s).
| Time | Temp. | Humidity | Pressure | Rain* | Wind** | Luminosity | Snow |
|---|---|---|---|---|---|---|---|
| 1778098338 | 20.56° C | - | - | 0 mm | 2.68 m/s, 87° | - | - |
| 1778098039 | 20° C | - | - | 0 mm | 4.02 m/s, 37° | - | - |
| 1778097737 | 20.56° C | - | - | 0 mm | 3.13 m/s, 63° | - | - |
| 1778097437 | 20° C | - | - | 0 mm | 3.13 m/s, 39° | - | - |
| 1778097138 | 19.44° C | - | - | 0 mm | 3.13 m/s, 330° | - | - |
| 1778096835 | 19.44° C | - | - | 0 mm | 4.47 m/s, 60° | - | - |
| 1778096536 | 19.44° C | - | - | 0 mm | 4.02 m/s, 14° | - | - |
| 1778096236 | 19.44° C | - | - | 0 mm | 4.02 m/s, 17° | - | - |
| 1778095934 | 19.44° C | - | - | 0 mm | 2.68 m/s, 10° | - | - |
| 1778095634 | 18.33° C | - | - | 0 mm | 3.58 m/s, 72° | - | - |
| 1778095335 | 17.78° C | - | - | 0 mm | 2.68 m/s, 70° | - | - |
| 1778095031 | 17.78° C | - | - | 0 mm | 4.02 m/s, 18° | - | - |
| 1778094732 | 17.22° C | - | - | 0 mm | 3.13 m/s, 68° | - | - |
| 1778094432 | 17.22° C | - | - | 0 mm | 3.13 m/s, 80° | - | - |
| 1778094130 | 17.22° C | - | - | 0 mm | 3.13 m/s, 30° | - | - |
| 1778093829 | 17.78° C | - | - | 0 mm | 3.13 m/s, 72° | - | - |
| 1778093227 | 17.22° C | - | - | 0 mm | 2.24 m/s, 94° | - | - |
| 1778092928 | 16.67° C | - | - | 0 mm | 4.02 m/s, 60° | - | - |
| 1778092628 | 16.67° C | - | - | 0 mm | 4.02 m/s, 65° | - | - |
| 1778092326 | 17.22° C | - | - | 0 mm | 3.13 m/s, 66° | - | - |
| 1778092027 | 17.22° C | - | - | 0 mm | 4.02 m/s, 3° | - | - |
| 1778091727 | 17.22° C | - | - | 0 mm | 4.02 m/s, 62° | - | - |
| 1778091425 | 17.22° C | - | - | 0 mm | 2.68 m/s, 77° | - | - |
| 1778091125 | 17.78° C | - | - | 0 mm | 2.68 m/s, 23° | - | - |
| 1778090826 | 17.22° C | - | - | 0 mm | 2.24 m/s, 28° | - | - |
* Rain latest hour (hover to see other rain measurements)
** Current wind speed in m/s (hover to see current wind gust speed)